Regional Weather Roundup
Issued by NWS State College, PA

Home | Current Version | Previous Version | Graphics & Text | Print | Product List | Glossary Off
Versions: 1 2 3 4 5 6 7 8 9 10 11 12 13 14 15 16 17 18 19 20 21 22 23 24 25 26 27 28 29 30 31 32 33 34 35 36 37 38 39 40 41 42 43 44 45 46 47 48 49 50

000
ASUS41 KCTP 231503
RWRCTP
NATIONAL WEATHER SERVICE STATE COLLEGE PA
1100 AM EDT SAT SEP 23 2017

Note: "fair" indicates few or no clouds below 12,000 feet with no
significant weather and/or obstructions to visibility.

* = STATION THAT DOES NOT REPORT PRECIPITATION /E.G. RAIN...SNOW...ETC/
    THUNDER OR FOG.

PAZ002>004-007>009-013>016-020>023-029>032-231600-
WESTERN PENNSYLVANIA

CITY           SKY/WX    TMP DP  RH WIND       PRES   REMARKS
ERIE           SUNNY     75  59  57 NE3       30.17S
MEADVILLE      SUNNY     78  48  34 CALM      30.20R
FRANKLIN*      SUNNY     74  54  49 CALM      30.21S
NEW CASTLE     FAIR      75  57  53 NE3       30.19S
BEAVER COUNTY  SUNNY     75  55  50 CALM      30.18S
BUTLER*        SUNNY     74  58  57 CALM      30.18S
PITTSBURGH INT MOSUNNY   73  57  57 CALM      30.17S
PITTSBURGH     SUNNY     73  57  57 CALM      30.17S
INDIANA*       SUNNY     73  54  49 CALM      30.21S
LATROBE        MOSUNNY   70  57  64 CALM      30.19R
WASHINGTON CO* SUNNY     73  61  64 CALM      30.18S
$$

PAZ004>006-010>012-017>019-024>028-033>037-041-042-045-046-049>053-231600-
CENTRAL PENNSYLVANIA

CITY           SKY/WX    TMP DP  RH WIND       PRES   REMARKS
BRADFORD       SUNNY     77  45  32 N6        30.22S
DUBOIS         SUNNY     76  44  32 CALM      30.19F
CLEARFIELD     SUNNY     70  54  56 VRB3      30.20S
JOHNSTOWN      SUNNY     75  54  47 VRB3      30.21S
ALTOONA        SUNNY     72  58  61 CALM      30.19S
STATE COLLEGE  SUNNY     70  57  64 CALM      30.18S
WILLIAMSPORT   SUNNY     73  57  57 W8        30.14F
SELINSGROVE    SUNNY     71  58  63 CALM      30.15S
FT INDIANTOWN  SUNNY     76  56  49 CALM      30.12F
CAPITAL CITY   SUNNY     77  53  43 NW6       30.12F
HARRISBURG     MOSUNNY   76  57  51 W7        30.11F
YORK           SUNNY     76  59  55 N6        30.13S
$$

PAZ038>040-043-044-047-048-054-055-060>062-067>071-231600-
EASTERN PENNSYLVANIA

CITY           SKY/WX    TMP DP  RH WIND       PRES   REMARKS
SCRANTON       SUNNY     70  58  65 VRB3      30.16R
MOUNT POCONO   SUNNY     72  58  61 NW9       30.16S
ALLENTOWN      SUNNY     78  60  53 NW6       30.10F
QUAKERTOWN*    SUNNY     75  59  57 N6        30.11S
READING        SUNNY     77  62  59 VRB5      30.10F
LANCASTER      SUNNY     79  60  52 N6        30.11S
COATESVILLE    SUNNY     75  59  57 N8        30.13S
POTTSTOWN      SUNNY     79  59  50 VRB7      30.11S
BLUE BELL      SUNNY     77  57  50 N6        30.10S
DOYLESTOWN     SUNNY     80  57  45 N8        30.09R
WILLOW GROVE   NOT AVBL
NORTH PHILA    SUNNY     81  59  47 N15       30.09R
PHILADELPHIA   MOSUNNY   80  57  45 N14       30.07S
$$




USA.gov is the U.S. government's official web portal to all federal, state and local government web resources and services.